Rbgn^[z[y[W
メイン
   新天体発見情報
     Comet C/2021 T4 (Lemmon)
投稿するにはまず登録を

スレッド表示 | 新しいものから 前のトピック | 次のトピック | 下へ
投稿者 スレッド
佐藤裕久
投稿日時: 2021-11-20 20:39
モデレータ
登録日: 2005-6-12
居住地: 日本
投稿: 2697
オンライン
Comet C/2021 T4 (Lemmon)

10月7日、Mt Lemmonの1.5-m 反射望遠鏡で得たCCDサーベイ画像から、小惑星状天体が
発見された。
R. Weryk (西オンタリオ大学,物理および天文学科)は、Mt Lemmonの発見の公表後、ハワイ 
HaleakalaにあるPan-STARRS1とPan-STARRS2の1.8-m Ritchey-Chretien 反射望遠鏡で得た
発見前の画像を報告した。8月7.6日と10月2.6日の、Pan-STARRS1の画像と、9月5.55-5.58日
と15.52-15.56日の、Pan-STARRS1の画像では、彗星活動を識別するほど良くなかった。
しかし、Werykは、1月と2月に、小惑星であれば写るはずの露出(すなわち"5 log r" の
光度曲線)があったことから、この天体が見えないのは彗星のような急勾配な光度曲線で
あると示唆した。
Werykはさらに、10月27.6日にPan-STARRS1で得た2枚の45秒w-バンド画像では、この彗星は
1".1のシーイングで1".6-1".7(半値全幅:FWHM)の集光したされたコマが見え、p.a. 70-115°
にまたいで2"の広い尾があると注記した。
小惑星センターのPCCP webpageに公表後、E. Bryssinck (Kruibeke, ベルギー, 10月11日, 
"Telescope Live"の0.6-m f/6.5反射望遠鏡, Rio Hurtado Valley, チリ:集光した9" x 6の
少し伸びたコマが見え、p.a. 321°の方向に伸びてるが、尾はない。5".6の範囲で測定した
光度は19.6等であった)やL. Buzzi (Varese, イタリア: 測定はA. Aletti, 10月13.15-13.17日、
0.84-m f/3.5 反射望遠鏡, 限界のシーイングによるCCD露出では、彗星は近く恒星よりわずか
に大きい程度で、10月15.1日、良いコンデションで得た画像は、4".0-4".3のシーイングて、
頭部は4".8(FWHM)に見えたが尾はない)らCCD位置観測者によって彗星状と観測された。

彗星機能の報告は次のとおり、

OC   Date        Reporter           Coma    Tail    PA          Exposures
204  2021-10-15  L. Buzzi           4".8
157  2021-10-16  R. Haver           6"                           40x90s
F51  2021-10-27  R. Weryk           0".6     2"    70-115         2x45s 
246  2021-10-28  M. Tichy           8".0

発見位置は次のとおり、

     2021 UT             R.A. (2000) Decl.       Mag.
     Sept. 9.45558    4 12 37.73   +13 19 36.3
           9.46218    4 12 37.65   +13 19 34.4
           9.46976    4 12 37.59   +13 19 34.3   21.6
     Oct.  7.34914    4 02 44.34   +12 01 40.4   20.2
           7.35429    4 02 44.16   +12 01 39.1   20.1
           7.35944    4 02 44.03   +12 01 38.1   20.2
           7.36460    4 02 43.86   +12 01 37.3   20.3
           8.37113    4 02 12.64   +11 58 18.3   20.5
           8.37842    4 02 12.43   +11 58 17.0   20.5
           8.38608    4 02 12.19   +11 58 15.6   20.3
           8.39316    4 02 11.97   +11 58 13.7   20.3

MPCの準放物線軌道要素、位置推算表は次のとおり、

Orbital elements:
    C/2021 T4 (Lemmon)                                                          
Epoch 2023 Aug. 4.0 TT = JDT 2460160.5                                          
T 2023 July 31.46285 TT                                 Rudenko                 
q   1.4833571            (2000.0)            P               Q                  
z  -0.0000030      Peri.  329.81037     +0.28281626     -0.90353972             
 +/-0.0002371      Node   257.88348     -0.80095552     -0.40711743             
e   1.0000044      Incl.  160.77659     -0.52771698     +0.13368384             
From 67 observations 2021 Aug. 7-Oct. 28, mean residual 0".5.                   
                                                                                
    C/2021 T4 (Lemmon)                                                          
Epoch 2021 July 5.0 TT = JDT 2459400.5                                          
T 2023 July 31.64040 TT                                 Rudenko                 
q   1.4834459            (2000.0)            P               Q                  
z  +0.0000914      Peri.  329.76151     +0.28228606     -0.90366313             
 +/-0.0002371      Node   257.80686     -0.80090452     -0.40677873             
e   0.9998644      Incl.  160.76345     -0.52807815     +0.13388059             
From 67 observations 2021 Aug. 7-Oct. 28, mean residual 0".5.                   
                                                                                
Ephemeris:
Date    TT    R. A. (2000) Decl.     Delta      r    Elong.  Phase   m1
2021 09 29    04 06 36.9 +12 27 55   6.6371  7.2359   123.3     6.6  20.2
...
2021 10 14    03 59 06.1 +11 39 12   6.3245  7.1146   139.7     5.2  20.0
...
2021 10 22    03 54 07.6 +11 10 35   6.1812  7.0495   148.6     4.2  19.9
...
2021 10 28    03 50 00.5 +10 48 12   6.0864  7.0006   155.2     3.4  19.9
2021 10 29    03 49 17.6 +10 44 25   6.0717  6.9925   156.3     3.3  19.9
2021 10 30    03 48 34.2 +10 40 37   6.0573  6.9843   157.3     3.1  19.9
...
2021 11 05    03 44 04.9 +10 17 34   5.9785  6.9352   163.6     2.3  19.8
...
2021 11 13    03 37 46.7 +09 46 35   5.8933  6.8696   169.8     1.5  19.7
...
2021 11 28    03 25 30.5 +08 50 08   5.7971  6.7459   162.8     2.5  19.6

(MPEC 2021-U187、CBET 5063)

スレッド表示 | 新しいものから 前のトピック | 次のトピック | トップ

投稿するにはまず登録を
 
© 1999 Tsutomu Seki.